Retour au catalogue

STARLINK-1042

ActifCommunicationsVLEO
NORAD 44747·PAYLOAD·🇺🇸 United States

Lancé Nov 11, 2019 depuis Cape Canaveral Space Force Station

Loading…

Prochains Passages (prochaines 24 heures)

TLE

FraisSource: CelesTrak SupGP

Époque: Sep 14, 2026, 22:01 UTC

1 44747C 19074AL  26257.91784722  .00071437  00000+0  83521-3 0  2579
2 44747  53.0376 260.1689 0005604  39.1637  29.3628 15.60888272    16

Suivez STARLINK-1042 en temps réel avec AllMySat

Download on the App Store